STARLINK-1713 (46360 NORAD) Tracking and Keplerian Element Data

This shows tracking and keplerian element data for the satellite.

Feedback or suggestion? Click here.




ElementValue
Catalog46360
NameSTARLINK-1713
Epoch Orbit178
Epoch Day268.91668981
Epoch Year2020
RAAN323.7388
Inclination53.0016
Eccentricity0.0001375
Argument of Perigee62.838
Mean Anonmoly154.8904
Mean Motion15.62759504
Decay Rate0.00025103
L11 46360U 20062AM 20268.91668981 .00025103 00000-0 27906-3 0 9993
L22 46360 53.0016 323.7388 0001375 62.8380 154.8904 15.62759504 1784

Live tracking and technical data element details for STARLINK-1713 (NORAD 46360). STARLINK-1713 can be tracked NOW for your location showing map with azimuth and elevation plus other details from your city location.

Track the satellite on the map from your city or location and see movement details for azimuth, elevation, latitude, longitude, range, height, and movement on the map or in text.







IsCatalogInMostPopularTable: catalog: 46360, numindb: 5
Update: records affected: 1



GetName: 46360 STARLINK-1713

Hit Count: updated at: Sat, 26 Sep 2020 16:03:54 GMT